Location: Newark
(52.9300°N, 3.3400°W)
Time: 15:32:44
(UTC+00:00)

NANOSAT C BR1 - Visible Passes

Search period start: 14 May 2021 00:00
Search period end: 24 May 2021 00:00
Orbit: 589 x 604 km, 98.0° (Epoch: 13 May)

Date Brightness Start Highest point End Pass type
(mag) Time Alt. Az. Time Alt. Az. Time Alt. Az.
14 May ? 00:22:14 10° ENE 00:23:44 12° E 00:25:16 10° ESE visible
14 May ? 01:55:48 10° NNE 02:00:05 83° ESE 02:02:42 23° SSW visible
14 May ? 03:32:33 10° NNW 03:35:10 16° NW 03:37:47 10° W visible
15 May ? 00:31:35 10° NE 00:33:55 14° E 00:36:14 10° ESE visible
15 May ? 02:05:51 10° NNE 02:10:08 80° WNW 02:12:55 21° SSW visible
16 May ? 00:41:12 10° NE 00:44:06 18° E 00:46:27 12° SE visible
16 May ? 02:15:56 10° N 02:20:10 65° WNW 02:23:08 19° SSW visible
17 May ? 00:50:57 10° NE 00:54:15 21° E 00:56:39 14° SE visible
17 May ? 02:26:01 10° N 02:30:11 52° WNW 02:33:20 16° SW visible
18 May ? 01:00:47 10° NE 01:04:23 26° E 01:06:52 16° SE visible
18 May ? 02:36:08 10° N 02:40:11 43° WNW 02:43:33 14° SW visible
19 May ? 01:10:40 10° NNE 01:14:30 31° E 01:17:04 17° SSE visible
19 May ? 02:46:17 10° N 02:50:10 35° WNW 02:53:45 12° SW visible
20 May ? 01:20:36 10° NNE 01:24:37 38° E 01:27:17 18° SSE visible
20 May ? 02:56:26 10° N 03:00:08 29° WNW 03:03:49 10° WSW visible
21 May ? 01:30:33 10° NNE 01:34:42 47° E 01:37:29 19° SSE visible
21 May ? 03:06:37 10° N 03:10:06 25° WNW 03:13:33 10° WSW visible
22 May ? 01:40:33 10° NNE 01:44:46 59° E 01:47:41 19° S visible
22 May ? 03:16:51 10° N 03:20:03 21° WNW 03:23:13 10° WSW visible
23 May ? 00:18:05 10° E 00:18:24 10° E 00:18:43 10° E visible
23 May ? 01:50:33 10° NNE 01:54:50 74° ESE 01:57:53 18° S visible
